SCOUT A DEB, 2778

Orbit data source: Space-Track

SCOUT A DEB, 2778 is space debris in LEO originally from a launch on Fri, 14 Apr 1967 UTC launched from the Air Force Western Test Range (AFWTR). Debris objects in space refer to the collection of defunct objects orbiting the Earth. Examples of debris include non-operational satellites, rocket bodies, and fragments generated from explosions, collisions, or faulty payload assembly.

Loading next visibility...
SCOUT A DEB details
Identifier
2778, 1967-034D
Orbit
LEO
Last TLE update1 day ago
Origin
Flag of USUSN NAVAIR (US)
ManufacturerUnknown
MissionSpacecraft
Bus & MotorUnknown
MassUnknown
Launch date (UTC)
1967-04-14 (58 years ago)
Launch vehicleUnknown
Launch site
Air Force Western Test Range (AFWTR)
Object type
Payload
Rocket body
Debris
Shape & HBRUnknown
Radar Cross SectionSmall (<0.1 m²)

Expand to show TLE details & history

TLE from 1 day ago
0 SCOUT A DEB
1 02778U 67034D   25042.26036127  .00000464  00000-0  86849-3 0  9996
2 02778  89.8286  45.1549 0121243 298.7158 194.1056 13.35003148807647
Epoch: 2025-02-11T06:14Z
Definitive object data (Epoch: 2025-02-11T06:14:55.213Z)
Latitude47.60164°
Longitude-10.32966°
Altitude1,223.75 km
Speed7.204 km/s
True Right ascension14h 59m 52s
True Declination47° 26' 27"
Sunlit
Object was in daylight at TLE epoch
Visualization TLE readout
Latitude12.02585°
Longitude-10.2008°
Altitude1,184.421 km
Speed7.236 km/s
Apparent Right ascension14h 02m 06s
Apparent Declination-43° 36' 48"
Sunlit
Object is in daylight
Visualization observer readout
Local Sidereal Time15:31:24
Azimuth196.004° SSW
Elevation4.076°
Doppler factor1
Orbital elements
Apogee altitude1,215.993 km
Perigee altitude1,034.052 km
Semi-major axis7,503.159 km
Eccentricity0.0121243
Inclination89.8286°
RAAN45.1549°
Arg. of periapsis298.7158°
True anomaly193.77191°
Mean anomaly194.1056°
Eccentric anomaly193.93827°
Mean motion3.33947 °/min
BSTAR0.00086849
Orbital period107.8 mins
Loading maneuver chart data...
Loading historical data...
Loading historical data...
Loading historical data...
Loading historical data...
Loading historical data...
Loading historical data...
Loading historical data...

SCOUT A DEB Visibility forecast

Observer location: undefined°, undefined

Span
Click to sort rows by Start time (UTC) header in descending order
Start Az.
Max El. time (UTC)
Max El. Az.
Max El.
End time (UTC)
End Az.
10 mins2025-02-12 23:04:33.475Z123.875° SE2025-02-12 23:09:33.475Z76.687° E22.664°2025-02-12 23:14:33.475Z26.877° NE
12 mins2025-02-13 00:51:33.475Z197.373° SSW2025-02-13 00:56:33.475Z259.201° W39.822°2025-02-13 01:03:33.475Z349.257° N
4 mins2025-02-13 10:24:33.475Z58.025° ENE2025-02-13 10:26:33.475Z74.867° E12.111°2025-02-13 10:28:33.475Z91.494° ESE
12 mins2025-02-13 12:09:33.475Z6.37° NNE2025-02-13 12:15:33.475Z125.59° SE44.085°2025-02-13 12:21:33.475Z177.372° S
|